Weather History for Greenwood, MS

Change the Weather History Date:

Saturday, January 5, 2013

  Actual Average Record
Temperature  
Mean Temperature 38 °F 43 °F  
Max Temperature 45 °F 53 °F 76 °F (2005)
Min Temperature 30 °F 33 °F 15 °F (1959)
Degree Days  
Heating Degree Days 27 22  
Month to date heating degree days 131 110  
Since 1 July heating degree days 1164 1176  
Cooling Degree Days 0 0  
Month to date cooling degree days 0 0  
Year to date cooling degree days 0 0  
Moisture  
Dew Point 37 °F    
Average Humidity 86    
Maximum Humidity 96    
Minimum Humidity 76    
Precipitation  
Precipitation 0.11 in 0.15 in 3.80 in (1950)
Month to date precipitation 1.28 0.72  
Year to date precipitation 1.28 0.72  
Sea Level Pressure  
Sea Level Pressure 30.35 in    
Wind  
Wind Speed 3 mph (SSE)    
Max Wind Speed 9 mph    
Max Gust Speed 10 mph    
Visibility 10 miles    
Events Rain    
T = Trace of Precipitation, MM = Missing Value Source: NWS Daily Summary

Daily Weather History Graph

Daily Weather History Graph

Search for Another Location

Airport:

Trip Planner

Search our weather history database for the weather conditions in past years. The results will help you decide how hot, cold, wet, or windy it might be!

Date:

Astronomy

Jan. 05, 2013 Rise Set
Actual Time 7:05 AM CST 5:06 PM CST
Civil Twilight 6:37 AM CST 5:34 PM CST
Nautical Twilight 6:06 AM CST 6:05 PM CST
Astronomical Twilight 5:36 AM CST 6:35 PM CST
Moon 12:21 AM CST (1/5) 11:48 AM CST (1/5)
Length of Visible Light 10h 56m
Length of Day
10h 01m
Last Quarter, 44% of the Moon is Illuminated
Jan 5
Last Quarter
Jan 11
New
Jan 18
First Quarter
Jan 26
Full
Feb 3
Last Quarter

Hourly Weather History & Observations

Time (CST) Temp. Windchill Dew Point Humidity Pressure Visibility Wind Dir Wind Speed Gust Speed Precip Events Conditions
12:53 AM 33.1 °F - 30.9 °F 92% 30.40 in 10.0 mi Calm Calm - N/A   Clear
1:53 AM 32.0 °F - 30.0 °F 92% 30.39 in 10.0 mi Calm Calm - N/A   Clear
2:53 AM 30.0 °F 25.2 °F 28.9 °F 96% 30.38 in 10.0 mi NE 4.6 mph - N/A   Clear
3:53 AM 33.1 °F 28.7 °F 30.0 °F 89% 30.36 in 10.0 mi ENE 4.6 mph - N/A   Clear
4:53 AM 33.8 °F - 30.2 °F 87% 30.38 in 10.0 mi Calm Calm - N/A   Partly Cloudy
5:53 AM 37.0 °F - 33.1 °F 86% 30.39 in 10.0 mi Calm Calm - N/A   Overcast
6:53 AM 37.0 °F 34.5 °F 34.0 °F 89% 30.42 in 10.0 mi NE 3.5 mph - 0.00 in Rain Light Rain
7:53 AM 37.9 °F - 34.0 °F 86% 30.43 in 9.0 mi Calm Calm - 0.02 in Rain Light Rain
8:38 AM 37.4 °F - 35.6 °F 93% 30.43 in 2.0 mi Calm Calm - 0.04 in Rain Rain
8:53 AM 37.9 °F - 36.0 °F 93% 30.44 in 5.0 mi Calm Calm - 0.06 in Rain Light Rain
9:53 AM 39.9 °F 37.8 °F 36.0 °F 86% 30.43 in 10.0 mi SE 3.5 mph - 0.00 in   Overcast
10:53 AM 43.0 °F 40.3 °F 37.0 °F 80% 30.38 in 10.0 mi SE 4.6 mph - N/A   Overcast
11:53 AM 44.1 °F 41.5 °F 37.9 °F 79% 30.36 in 10.0 mi South 4.6 mph - N/A   Overcast
12:53 PM 45.0 °F 42.6 °F 37.9 °F 76% 30.34 in 10.0 mi SSW 4.6 mph - N/A   Overcast
1:53 PM 44.1 °F 40.8 °F 39.0 °F 82% 30.32 in 10.0 mi SSW 5.8 mph - 0.01 in Rain Light Rain
2:53 PM 43.0 °F 39.5 °F 39.0 °F 86% 30.32 in 10.0 mi South 5.8 mph - 0.01 in Rain Light Rain
3:53 PM 43.0 °F 39.5 °F 39.9 °F 89% 30.33 in 10.0 mi SSW 5.8 mph - 0.01 in Rain Light Rain
4:53 PM 42.8 °F 39.3 °F 39.2 °F 87% 30.32 in 10.0 mi South 5.8 mph - N/A   Overcast
5:53 PM 42.1 °F 38.4 °F 41.0 °F 96% 30.32 in 10.0 mi South 5.8 mph - N/A   Overcast
6:01 PM 42.8 °F 40.1 °F 41.0 °F 93% 30.32 in 10.0 mi South 4.6 mph - N/A   Overcast
6:08 PM 42.8 °F 40.1 °F 41.0 °F 93% 30.32 in 10.0 mi South 4.6 mph - N/A   Overcast
6:53 PM 42.1 °F - 39.9 °F 92% 30.32 in 10.0 mi Calm Calm - N/A   Overcast
7:53 PM 42.1 °F - 39.9 °F 92% 30.33 in 10.0 mi Calm Calm - N/A   Overcast
8:39 PM 42.8 °F - 39.2 °F 87% 30.31 in 10.0 mi Calm Calm - N/A   Overcast
8:53 PM 42.1 °F - 39.9 °F 92% 30.32 in 10.0 mi Calm Calm - N/A   Overcast
9:13 PM 42.8 °F - 39.2 °F 87% 30.31 in 10.0 mi Calm Calm - N/A   Overcast
9:53 PM 42.1 °F - 39.9 °F 92% 30.31 in 10.0 mi Calm Calm - N/A   Overcast
10:37 PM 42.8 °F - 39.2 °F 87% 30.31 in 10.0 mi Calm Calm - N/A   Overcast
10:53 PM 42.1 °F 40.2 °F 39.9 °F 92% 30.31 in 10.0 mi South 3.5 mph - N/A   Overcast
11:53 PM 41.0 °F - 39.9 °F 96% 30.30 in 10.0 mi Calm Calm - N/A   Overcast